Showing default

FLOCK 4G 23, 62647

Orbit data source: Space-Track

FLOCK 4G 23, 62647 is a payload satellite owned by Planet (US) in SSO that was launched on Tue, 14 Jan 2025 UTC via an FALCON 9 launch vehicle from the Air Force Western Test Range (AFWTR). Payload-class satellites include a variety of spacecraft equipped with specific instruments for various scientific and technological missions. These include communications satellites like Starlink; space stations such as the ISS; scientific satellites like the Hubble; Earth observation satellites from companies like Planet Labs, Umbra, and HawkEye 360; GPS; miniature CubeSats for education and research; and military/defense satellites.

Loading next visibility...
Identifier
62647, 2025-009AQ
Orbit
SSO
Country
Flag of USUS
Related business
Manufacturer
Planet
Mission
Partially operational Commercial Imaging
Bus & Motor
CUBESAT 3U, Unknown motor
Mass
5.7 kg wet, 5.7 kg dry
Launch date (UTC)
2025-01-14 (2 years ago)
Launch vehicle
FALCON 9
Launch site
Air Force Western Test Range (AFWTR)
Object type
Payload
Rocket body
Debris
Shape & HBR
Box + 2 Pan, 1.0 m
Radar Cross Section
0.072 m², Medium (>0.1 m² and < 1m²)

Expand to show TLE details & history
Last TLE update: 10 hours ago

TLE from 10 hours ago
0 FLOCK 4G 23
1 62647U 25009AQ  26264.50541403  .00037316  00000-0  93055-3 0  9998
2 62647  97.3861 346.5846 0000564 248.6643 111.4543 15.40114388 93719
Epoch: 2026-09-21T12:07Z
TLE epoch observation values (Epoch: 2026-09-21T12:07:47.772Z)
Latitude
Longitude
164.25127°
Altitude
449.03 km
Speed
7.643 km/s
True Right ascension
23h 06m 20s
True Declination
0° 00' 00"
Sunlit
Object was in full shadow at epoch
Visualization orbit readout
Latitude
Unknown
Longitude
Unknown
Altitude
Unknown
Speed
Unknown
Apparent Right ascension
Unknown
Apparent Declination
Unknown
Sunlit
N/A
Visualization observer readout
Local Sidereal Time
14:53:14
Azimuth
Unknown
Elevation
Unknown
Doppler factor
Unknown
Orbital elements
Apogee altitude
443.094 km
Perigee altitude
442.325 km
Semi-major axis
6,820.847 km
Eccentricity
0.00006
Inclination
97.3861°
RAAN
346.5846°
Arg. of periapsis
248.6643°
True anomaly
111.46031°
Mean anomaly
111.4543°
Eccentric anomaly
111.45731°
Mean motion
3.85288 °/min
Orbital period
93.44 mins
BSTAR
0.00093055
Loading maneuver chart data...
Computing Atmospheric mass density...
Loading historical data...
Loading historical data...
Loading historical data...
Loading historical data...
Loading historical data...
Loading historical data...
Loading historical data...

Documentation

Showing up to 5 results
|